Weather Roundup
Issued by NWS

Home | Current Version | Previous Version | Graphics & Text | Print | Product List | Glossary Off
Versions: 1 2 3 4 5 6 7 8 9 10 11 12 13 14 15 16 17 18 19 20 21 22 23 24 25 26 27 28 29 30 31 32 33 34 35 36 37 38 39 40 41 42 43 44 45 46 47 48 49 50

000
NZUS93 KARX 260510
HRRWXR

CURRENT HOURLY OBSERVATIONS ACROSS
MUCH OF THE UPPER MISSISSIPPI VALLEY
NATIONAL WEATHER SERVICE LA CROSSE WI
1200 AM CDT TUE SEP 26 2017


...SOUTHEAST MINNESOTA...


CITY           SKY/WX    TMP DP  RH WIND       PRES   REMARKS
ROCHESTER      LGT RAIN  62  61  96 N5        29.96S
ROCHESTER/MAYO CLOUDY    62  62 100 CALM      29.95F
WINONA         CLOUDY    64  63  94 CALM      29.94S
AUSTIN         LGT RAIN  63  61  94 CALM      29.98F
ALBERT LEA     LGT RAIN  63  63 100 N5        29.94F
DODGE CENTER   LGT RAIN  61  57  88 CALM      29.96S
PRESTON        CLOUDY    63  62  95 CALM      29.95F FOG
OWATONNA       LGT RAIN  59  57  94 NE3       29.95F
FARIBAULT      DRIZZLE   59  57  94 N3        29.96S
$$

...ELSEWHERE IN MINNESOTA...


CITY           SKY/WX    TMP DP  RH WIND       PRES   REMARKS
MINNEAPOLIS    LGT RAIN  58  58 100 N9        29.95F
INTNL FALLS    CLOUDY    52  47  83 E9        30.06F
DULUTH         LGT RAIN  54  54 100 NE7       29.99S FOG
RED WING       CLOUDY    63  59  88 CALM      29.94R
REDWOOD FALLS  LGT RAIN  56  53  90 N5        29.96F
MANKATO        LGT RAIN  57  56  96 N7        29.96F
WORTHINGTON    LGT RAIN  54  53  97 N7        29.97F
FAIRMONT       CLOUDY    57  56  96 NE6       29.94F
$$

...SOUTHWEST WISCONSIN...


CITY           SKY/WX    TMP DP  RH WIND       PRES   REMARKS
LA CROSSE      MOCLDY    69  67  93 S3        29.93S
PRAIRIE DU CHI CLOUDY    67  65  94 CALM      29.95R
BOSCOBEL       LGT RAIN  68  66  93 CALM      29.94F FOG
LONE ROCK      HVY RAIN  67  67 100 CALM      29.95S VSB 1
PLATTEVILLE    PTCLDY    68  67  96 N6        29.96F
FORT MC COY    CLOUDY    62  62 100 CALM      29.95S
CAMP DOUGLAS   LGT RAIN  66  66 100 CALM      29.95F
MAUSTON-NEW LI LGT RAIN  67  65  94 CALM      29.95F
VIROQUA        CLOUDY    65  65 100 SE5       29.95F
WIS DELLS      CLOUDY    67  62  83 CALM      29.96F
$$

...ELSEWHERE IN WISCONSIN...


CITY           SKY/WX    TMP DP  RH WIND       PRES   REMARKS
MILWAUKEE      CLEAR     75  61  61 S5        29.93S
MADISON        CLEAR     68  63  84 NW6       29.95R
GREEN BAY      CLEAR     64  64 100 S5        29.94R
EAU CLAIRE     CLOUDY    63  62  97 NE3       29.93F
BLACK RVR FLS  LGT RAIN  66  66 100 CALM      29.94S
MEDFORD        FOG       63  63  99 CALM      29.96R VSB 1/2
WAUSAU         CLOUDY    66  64  93 S3        29.94R
WIS RAPIDS     LGT RAIN  67  65  93 S3        29.97R
MARSHFIELD     MOCLDY    63  60  90 SW5       29.95S
RICE LAKE      DRIZZLE   58  57  97 CALM      29.97F
$$

...NORTHEAST IOWA...


CITY           SKY/WX    TMP DP  RH WIND       PRES   REMARKS
WATERLOO       PTCLDY    64  64 100 E6        29.91F
DUBUQUE        PTCLDY    67  65  93 NE7       29.96S
DECORAH        MOCLDY    66  64  94 E6        29.94F
MASON CITY     CLOUDY    64  63  96 NW5       29.95R
CHARLES CITY   CLOUDY    66  66 100 E6        29.93S
OELWEIN        CLOUDY    66  66 100 NE5       29.94F
$$

...ELSEWHERE IN IOWA...


CITY           SKY/WX    TMP DP  RH WIND       PRES   REMARKS
DES MOINES     CLOUDY    67  65  93 CALM      29.93R
IOWA CITY      NOT AVBL
FORT DODGE     LGT RAIN  60  59  96 NE3       29.95F
MARSHALLTOWN   CLOUDY    65  65 100 SE9       29.92R
CEDAR RAPIDS   MOCLDY    68  67  96 NE7       29.93F
$$

...NORTHERN ILLINOIS...


CITY           SKY/WX    TMP DP  RH WIND       PRES   REMARKS
CHICAGO-OHARE  PTCLDY    75  58  55 S5        29.93S
CHICAGO-MIDWAY PTCLDY    79  57  46 S5        29.94S
MOLINE         CLOUDY    72  67  84 CALM      29.90S
ROCKFORD       PTCLDY    70  60  70 S5        29.94S
PEORIA         CLEAR     72  63  73 CALM      29.93S
$$

NOTE: "FAIR" INDICATES FEW OR NO CLOUDS BELOW 12,000 FEET WITH NO
SIGNIFICANT WEATHER AND/OR OBSTRUCTIONS TO VISIBILITY. WIND
SPEEDS ARE IN MILES-PER-HOUR.




USA.gov is the U.S. government's official web portal to all federal, state and local government web resources and services.